DLH83T EDDF-LPPR

Flight info

Callsign DLH83T
Flight time 2h 27m
Altitude 36000
Route SOBRA2L SOBRA Y180 DIK UN857 TOLVU/N0439F370 DCT RAPOR DCT GIMER/N0434F350 DCT ESTOC UT300 PON UN872 GODIX/N0416F310 UN872 DIDAK/N0443F370 UN872 TERPO/N0435F350 UN872 ERIGA UZ218 FUJTI DCT ATLEN DCT INSID T326 ASPOR
Aircraft A320/M-SDE3FGHIRWY/LB1

Departure

Time 2026-05-04 06:46
Airport Frankfurt Main Airport (EDDF)

Arrival

Time 2026-05-04 09:14
Airport Francisco de Sá Carneiro Airport (LPPR)
Time Latitude Longitude Altitude Speed Heading
2026-05-04 06:13 50.04698 8.57094 364 ft 0 kts 115°
2026-05-04 06:36 50.04713 8.56976 359 ft 3 kts 205°
2026-05-04 06:37 50.04691 8.56961 357 ft 3 kts 205°
2026-05-04 06:37 50.04669 8.56945 358 ft 3 kts 205°
2026-05-04 06:37 50.04653 8.56934 363 ft 0 kts 205°
2026-05-04 06:40 50.04652 8.56933 356 ft 2 kts 205°
2026-05-04 06:40 50.04616 8.56913 356 ft 9 kts 193°
2026-05-04 06:40 50.04535 8.56884 359 ft 14 kts 193°
2026-05-04 06:41 50.04447 8.56799 364 ft 17 kts 240°
2026-05-04 06:41 50.04401 8.56618 361 ft 19 kts 250°
2026-05-04 06:41 50.04351 8.56407 362 ft 22 kts 249°
2026-05-04 06:41 50.04298 8.56185 359 ft 23 kts 250°
2026-05-04 06:42 50.04240 8.55944 361 ft 25 kts 249°
2026-05-04 06:42 50.04179 8.55687 354 ft 26 kts 249°
2026-05-04 06:42 50.04114 8.55417 353 ft 27 kts 250°
2026-05-04 06:44 50.03668 8.53671 344 ft 25 kts 248°
2026-05-04 06:44 50.03602 8.53410 335 ft 26 kts 250°
2026-05-04 06:44 50.03537 8.53138 338 ft 27 kts 249°
2026-05-04 06:45 50.03479 8.52899 336 ft 19 kts 248°
2026-05-04 06:45 50.03427 8.52700 332 ft 18 kts 249°
2026-05-04 06:45 50.03398 8.52599 334 ft 8 kts 221°
2026-05-04 06:45 50.03349 8.52593 335 ft 9 kts 179°
2026-05-04 06:46 50.03129 8.52596 335 ft 66 kts 180°
2026-05-04 06:46 50.02448 8.52603 335 ft 127 kts 180°
2026-05-04 06:46 50.01405 8.52612 457 ft 162 kts 179°
2026-05-04 06:46 50.00290 8.52632 1201 ft 160 kts 179°
2026-05-04 06:48 49.90298 8.53298 5621 ft 232 kts 180°
2026-05-04 06:48 49.88676 8.53407 6426 ft 235 kts 180°
2026-05-04 06:49 49.87045 8.53246 7168 ft 236 kts 195°
2026-05-04 06:50 49.76019 8.43233 11367 ft 317 kts 260°
2026-05-04 06:51 49.76158 8.39803 12072 ft 326 kts 281°
2026-05-04 06:51 49.76691 8.36370 12824 ft 330 kts 282°
2026-05-04 06:51 49.77261 8.32897 13546 ft 335 kts 282°
2026-05-04 06:51 49.77846 8.29382 14220 ft 340 kts 282°
2026-05-04 06:52 49.78436 8.25819 14866 ft 343 kts 282°
2026-05-04 06:52 49.79025 8.22221 15512 ft 347 kts 281°
2026-05-04 06:52 49.79614 8.18578 16163 ft 350 kts 281°
2026-05-04 06:52 49.80203 8.14903 16832 ft 354 kts 281°
2026-05-04 06:53 49.80794 8.11186 17478 ft 357 kts 280°
2026-05-04 06:53 49.81388 8.07430 18112 ft 361 kts 280°
2026-05-04 06:53 49.81987 8.03641 18678 ft 364 kts 280°
2026-05-04 06:53 49.82584 7.99861 19244 ft 366 kts 280°
2026-05-04 06:54 49.83189 7.96020 19819 ft 368 kts 280°
2026-05-04 06:54 49.83800 7.92148 20403 ft 370 kts 280°
2026-05-04 06:54 49.84409 7.88263 20977 ft 372 kts 280°
2026-05-04 06:54 49.85017 7.84363 21538 ft 373 kts 280°
2026-05-04 06:55 49.85627 7.80439 22106 ft 375 kts 279°
2026-05-04 06:55 49.86241 7.76494 22647 ft 377 kts 280°
2026-05-04 06:55 49.86862 7.72537 23208 ft 379 kts 280°
2026-05-04 06:55 49.87492 7.68555 23684 ft 382 kts 280°
2026-05-04 06:56 49.88121 7.64545 24094 ft 384 kts 279°
2026-05-04 06:57 49.92525 7.35805 26952 ft 398 kts 279°
2026-05-04 06:58 49.93159 7.31618 27340 ft 400 kts 279°
2026-05-04 06:58 49.93788 7.27454 27746 ft 402 kts 278°
2026-05-04 06:58 49.94426 7.23223 28127 ft 404 kts 278°
2026-05-04 06:58 49.95071 7.18954 28489 ft 406 kts 278°
2026-05-04 06:59 49.95720 7.14670 28868 ft 408 kts 278°
2026-05-04 06:59 49.96370 7.10369 29246 ft 410 kts 278°
2026-05-04 06:59 49.97022 7.06044 29606 ft 412 kts 278°
2026-05-04 06:59 49.97671 7.01692 29955 ft 414 kts 278°
2026-05-04 07:01 49.98732 6.70693 32208 ft 411 kts 263°
2026-05-04 07:01 49.98601 6.66263 32602 ft 409 kts 263°
2026-05-04 07:02 49.98469 6.61796 33000 ft 408 kts 263°
2026-05-04 07:02 49.98191 6.57489 33381 ft 404 kts 256°
2026-05-04 07:02 49.97468 6.53309 33745 ft 399 kts 247°
2026-05-04 07:02 49.96381 6.49298 34107 ft 397 kts 244°
2026-05-04 07:03 49.95290 6.45418 34409 ft 397 kts 244°
2026-05-04 07:03 49.94188 6.41487 34683 ft 397 kts 244°
2026-05-04 07:03 49.93087 6.37563 34948 ft 397 kts 244°
2026-05-04 07:03 49.91983 6.33640 35237 ft 397 kts 244°
2026-05-04 07:04 49.90874 6.29712 35487 ft 397 kts 244°
2026-05-04 07:04 49.89759 6.25787 35721 ft 397 kts 243°
2026-05-04 07:04 49.88617 6.21883 35932 ft 398 kts 243°
2026-05-04 07:04 49.87491 6.17960 35992 ft 396 kts 244°
2026-05-04 07:05 49.84966 6.10451 36000 ft 391 kts 233°
2026-05-04 07:05 49.81833 6.03572 36000 ft 391 kts 233°
2026-05-04 07:06 49.77088 5.93308 36001 ft 393 kts 233°
2026-05-04 07:07 49.74076 5.86163 36017 ft 407 kts 242°
2026-05-04 07:09 49.66200 5.52766 35994 ft 414 kts 247°
2026-05-04 07:09 49.64240 5.44414 35993 ft 414 kts 247°
2026-05-04 07:10 49.62283 5.36116 36016 ft 414 kts 248°
2026-05-04 07:12 49.55718 5.02098 35995 ft 414 kts 252°
2026-05-04 07:12 49.54235 4.93586 35991 ft 414 kts 251°
2026-05-04 07:13 49.52697 4.85040 36014 ft 414 kts 251°
2026-05-04 07:13 49.51144 4.76503 36003 ft 414 kts 251°
2026-05-04 07:14 49.47285 4.55163 35996 ft 414 kts 251°
2026-05-04 07:15 49.45738 4.46692 36004 ft 414 kts 251°
2026-05-04 07:15 49.44153 4.38108 35994 ft 415 kts 251°
2026-05-04 07:16 49.42574 4.29581 35996 ft 416 kts 250°
2026-05-04 07:16 49.40999 4.21100 35995 ft 416 kts 250°
2026-05-04 07:17 49.39401 4.12569 36001 ft 416 kts 250°
2026-05-04 07:17 49.37806 4.04039 35994 ft 416 kts 250°
2026-05-04 07:18 49.36216 3.95505 35991 ft 416 kts 251°
2026-05-04 07:18 49.34913 3.86834 35990 ft 417 kts 254°
2026-05-04 07:19 49.33761 3.78110 35991 ft 418 kts 255°
2026-05-04 07:19 49.32569 3.69401 35985 ft 417 kts 254°
2026-05-04 07:20 49.31318 3.60774 35985 ft 417 kts 253°
2026-05-04 07:20 49.30038 3.52108 36002 ft 417 kts 253°
2026-05-04 07:22 49.24906 3.17384 35961 ft 418 kts 253°
2026-05-04 07:23 49.23611 3.08777 35981 ft 418 kts 253°
2026-05-04 07:23 49.22307 3.00092 35976 ft 418 kts 253°
2026-05-04 07:24 49.20990 2.91424 35972 ft 419 kts 253°
2026-05-04 07:24 49.19664 2.82739 35968 ft 420 kts 253°
2026-05-04 07:26 49.14302 2.47986 35967 ft 423 kts 252°
2026-05-04 07:27 49.12959 2.39234 35972 ft 425 kts 256°
2026-05-04 07:27 49.12117 2.30273 35968 ft 426 kts 257°
2026-05-04 07:28 49.11272 2.21318 35969 ft 426 kts 257°
2026-05-04 07:28 49.10425 2.12339 35970 ft 427 kts 257°
2026-05-04 07:29 49.09373 2.03423 35961 ft 424 kts 249°
2026-05-04 07:29 49.07094 1.95189 35957 ft 421 kts 242°
2026-05-04 07:30 49.04646 1.87068 35956 ft 422 kts 242°
2026-05-04 07:30 49.02212 1.78992 35967 ft 422 kts 242°
2026-05-04 07:31 48.99756 1.70866 35997 ft 422 kts 242°
2026-05-04 07:33 48.89826 1.38335 35992 ft 424 kts 242°
2026-05-04 07:33 48.87325 1.30210 36017 ft 425 kts 242°
2026-05-04 07:34 48.85233 1.23462 35995 ft 425 kts 242°
2026-05-04 07:34 48.82296 1.14002 35987 ft 426 kts 242°
2026-05-04 07:35 48.80178 1.07183 35985 ft 426 kts 242°
2026-05-04 07:35 48.77645 0.99051 35980 ft 426 kts 242°
2026-05-04 07:36 48.75104 0.90937 35975 ft 426 kts 241°
2026-05-04 07:38 48.62883 0.60334 35973 ft 426 kts 236°
2026-05-04 07:38 48.59780 0.52719 35976 ft 425 kts 236°
2026-05-04 07:39 48.56673 0.45115 35981 ft 425 kts 235°
2026-05-04 07:39 48.53557 0.37529 35987 ft 426 kts 236°
2026-05-04 07:40 48.50449 0.29984 35981 ft 426 kts 236°
2026-05-04 07:40 48.47314 0.22380 35975 ft 427 kts 236°
2026-05-04 07:41 48.44169 0.14795 35978 ft 427 kts 236°
2026-05-04 07:41 48.41027 0.07217 35980 ft 427 kts 236°
2026-05-04 07:42 48.37865 -0.00363 35995 ft 427 kts 235°
2026-05-04 07:42 48.34626 -0.07843 35997 ft 427 kts 232°
2026-05-04 07:43 48.31108 -0.14966 35986 ft 427 kts 230°
2026-05-04 07:43 48.27475 -0.22021 35981 ft 427 kts 230°
2026-05-04 07:44 48.23865 -0.29117 35986 ft 427 kts 231°
2026-05-04 07:44 48.20261 -0.36211 35978 ft 427 kts 230°
2026-05-04 07:45 48.16645 -0.43288 35978 ft 427 kts 230°
2026-05-04 07:45 48.13027 -0.50338 35974 ft 427 kts 230°
2026-05-04 07:46 48.09407 -0.57372 35971 ft 426 kts 230°
2026-05-04 07:46 48.05803 -0.64355 35965 ft 426 kts 230°
2026-05-04 07:47 48.02176 -0.71371 35968 ft 426 kts 230°
2026-05-04 07:49 47.87624 -0.99358 35974 ft 428 kts 230°
2026-05-04 07:49 47.83967 -1.06351 35973 ft 428 kts 230°
2026-05-04 07:50 47.80320 -1.13286 35971 ft 428 kts 230°
2026-05-04 07:50 47.76656 -1.20263 35968 ft 428 kts 230°
2026-05-04 07:51 47.72987 -1.27225 35994 ft 428 kts 230°
2026-05-04 07:51 47.69305 -1.34180 35979 ft 429 kts 230°
2026-05-04 07:52 47.65608 -1.41136 35980 ft 430 kts 230°
2026-05-04 07:52 47.61907 -1.48102 35981 ft 430 kts 230°
2026-05-04 07:54 47.46103 -1.74516 35988 ft 429 kts 226°
2026-05-04 07:55 47.42110 -1.81062 35982 ft 429 kts 226°
2026-05-04 07:55 47.38107 -1.87632 35997 ft 430 kts 226°
2026-05-04 07:56 47.33832 -1.93743 35994 ft 428 kts 214°
2026-05-04 07:56 47.28779 -1.98346 36000 ft 427 kts 211°
2026-05-04 07:57 47.23731 -2.02860 36006 ft 427 kts 211°
2026-05-04 07:57 47.18652 -2.07413 36027 ft 427 kts 211°
2026-05-04 07:58 47.13567 -2.11950 36011 ft 427 kts 211°
2026-05-04 07:58 47.08472 -2.16469 35989 ft 427 kts 211°
2026-05-04 07:59 47.03380 -2.20972 35986 ft 427 kts 211°
2026-05-04 07:59 46.98324 -2.25452 35985 ft 427 kts 211°
2026-05-04 08:00 46.93229 -2.29941 35984 ft 428 kts 211°
2026-05-04 08:02 46.72826 -2.47853 35999 ft 428 kts 210°
2026-05-04 08:02 46.67720 -2.52327 35981 ft 428 kts 210°
2026-05-04 08:03 46.62601 -2.56792 35979 ft 429 kts 210°
2026-05-04 08:03 46.57481 -2.61238 35985 ft 429 kts 210°
2026-05-04 08:04 46.52377 -2.65659 35982 ft 429 kts 210°
2026-05-04 08:04 46.47254 -2.70098 35991 ft 429 kts 210°
2026-05-04 08:05 46.42131 -2.74523 35993 ft 428 kts 210°
2026-05-04 08:05 46.37006 -2.78938 35994 ft 428 kts 210°
2026-05-04 08:06 46.31878 -2.83347 35996 ft 428 kts 210°
2026-05-04 08:06 46.26775 -2.87813 35989 ft 429 kts 215°
2026-05-04 08:08 46.08486 -3.09989 35983 ft 430 kts 219°
2026-05-04 08:11 45.87839 -3.34933 35990 ft 432 kts 219°
2026-05-04 08:11 45.80921 -3.43239 35992 ft 432 kts 219°
2026-05-04 08:12 45.76338 -3.48738 35997 ft 432 kts 219°
2026-05-04 08:12 45.71721 -3.54256 35996 ft 432 kts 219°
2026-05-04 08:13 45.67095 -3.59764 35990 ft 433 kts 219°
2026-05-04 08:13 45.62459 -3.65268 35989 ft 433 kts 219°
2026-05-04 08:14 45.57821 -3.70768 35986 ft 434 kts 219°
2026-05-04 08:16 45.39207 -3.92731 36011 ft 435 kts 219°
2026-05-04 08:16 45.34567 -3.98171 36002 ft 435 kts 219°
2026-05-04 08:17 45.29893 -4.03647 35988 ft 435 kts 219°
2026-05-04 08:17 45.25214 -4.09110 35997 ft 435 kts 219°
2026-05-04 08:19 45.06504 -4.30839 36013 ft 435 kts 219°
2026-05-04 08:20 45.01823 -4.36250 36013 ft 435 kts 219°
2026-05-04 08:20 44.97139 -4.41653 36018 ft 435 kts 219°
2026-05-04 08:21 44.92451 -4.47054 36017 ft 435 kts 219°
2026-05-04 08:21 44.87762 -4.52438 36024 ft 434 kts 219°
2026-05-04 08:22 44.83073 -4.57809 36042 ft 434 kts 219°
2026-05-04 08:24 44.64337 -4.79142 36015 ft 434 kts 219°
2026-05-04 08:24 44.59636 -4.84469 36013 ft 434 kts 218°
2026-05-04 08:25 44.54928 -4.89784 36014 ft 435 kts 218°
2026-05-04 08:25 44.50210 -4.95085 36009 ft 434 kts 218°
2026-05-04 08:27 44.31361 -5.13964 36021 ft 435 kts 216°
2026-05-04 08:28 44.26442 -5.18898 36021 ft 435 kts 216°
2026-05-04 08:28 44.21517 -5.23818 36026 ft 435 kts 216°
2026-05-04 08:29 44.16582 -5.28729 36032 ft 435 kts 216°
2026-05-04 08:31 43.96826 -5.48277 36037 ft 437 kts 216°
2026-05-04 08:33 43.77019 -5.67718 36035 ft 436 kts 216°
2026-05-04 08:35 43.57141 -5.87064 36046 ft 437 kts 216°
2026-05-04 08:35 43.52165 -5.91882 36054 ft 437 kts 216°
2026-05-04 08:37 43.34752 -6.08653 36049 ft 437 kts 216°
2026-05-04 08:38 43.29776 -6.13434 36045 ft 436 kts 216°
2026-05-04 08:38 43.24796 -6.18205 36022 ft 437 kts 216°
2026-05-04 08:40 43.05947 -6.36167 36031 ft 437 kts 216°
2026-05-04 08:41 43.00946 -6.40906 36034 ft 437 kts 216°
2026-05-04 08:41 42.95945 -6.45634 36039 ft 437 kts 216°
2026-05-04 08:42 42.90949 -6.50364 36043 ft 437 kts 216°
2026-05-04 08:42 42.85946 -6.55076 36046 ft 437 kts 216°
2026-05-04 08:43 42.80942 -6.59775 36029 ft 437 kts 216°
2026-05-04 08:43 42.75940 -6.64465 36034 ft 436 kts 216°
2026-05-04 08:44 42.70968 -6.69126 36038 ft 436 kts 216°
2026-05-04 08:46 42.50936 -6.87800 36057 ft 437 kts 216°
2026-05-04 08:46 42.45947 -6.92422 36055 ft 438 kts 216°
2026-05-04 08:47 42.40914 -6.97077 36055 ft 438 kts 216°
2026-05-04 08:47 42.35885 -7.01727 36050 ft 438 kts 217°
2026-05-04 08:48 42.30850 -7.06382 36055 ft 438 kts 217°
2026-05-04 08:48 42.26447 -7.11944 36057 ft 433 kts 235°
2026-05-04 08:49 42.23241 -7.18790 35916 ft 426 kts 239°
2026-05-04 08:50 42.14217 -7.38337 34483 ft 400 kts 239°
2026-05-04 08:50 42.12765 -7.41467 34209 ft 396 kts 239°
2026-05-04 08:51 42.11313 -7.44596 33708 ft 393 kts 240°
2026-05-04 08:51 42.09871 -7.47698 33232 ft 388 kts 240°
2026-05-04 08:51 42.08442 -7.50763 32763 ft 384 kts 240°
2026-05-04 08:51 42.07030 -7.53793 32305 ft 380 kts 240°
2026-05-04 08:52 42.05633 -7.56792 31849 ft 377 kts 240°
2026-05-04 08:52 42.04247 -7.59765 31399 ft 373 kts 240°
2026-05-04 08:52 42.02874 -7.62710 30956 ft 369 kts 240°
2026-05-04 08:52 42.01517 -7.65619 30534 ft 366 kts 241°
2026-05-04 08:53 42.00171 -7.68502 30103 ft 362 kts 241°
2026-05-04 08:54 41.91235 -7.87518 27371 ft 328 kts 242°
2026-05-04 08:55 41.90028 -7.90089 27006 ft 324 kts 242°
2026-05-04 08:55 41.88828 -7.92638 26624 ft 322 kts 242°
2026-05-04 08:55 41.87630 -7.95179 26244 ft 321 kts 242°
2026-05-04 08:55 41.86439 -7.97700 25854 ft 319 kts 242°
2026-05-04 08:57 41.75786 -8.12402 22751 ft 328 kts 214°
2026-05-04 09:01 41.45983 -8.27604 16794 ft 325 kts 202°
2026-05-04 09:01 41.43845 -8.28576 16411 ft 324 kts 202°
2026-05-04 09:01 41.41717 -8.29541 16024 ft 323 kts 202°
2026-05-04 09:01 41.39587 -8.30503 15645 ft 322 kts 202°
2026-05-04 09:02 41.37465 -8.31462 15254 ft 322 kts 202°
2026-05-04 09:02 41.35346 -8.32424 14869 ft 321 kts 202°
2026-05-04 09:02 41.33232 -8.33386 14484 ft 321 kts 202°
2026-05-04 09:02 41.31120 -8.34348 14099 ft 320 kts 201°
2026-05-04 09:03 41.29039 -8.35295 13700 ft 320 kts 201°
2026-05-04 09:03 41.26938 -8.36247 13296 ft 318 kts 201°
2026-05-04 09:03 41.24845 -8.37192 12906 ft 316 kts 201°
2026-05-04 09:03 41.22767 -8.38129 12512 ft 315 kts 201°
2026-05-04 09:04 41.20698 -8.39060 12124 ft 313 kts 201°
2026-05-04 09:04 41.18638 -8.39989 11736 ft 312 kts 201°
2026-05-04 09:04 41.16588 -8.40912 11334 ft 311 kts 201°
2026-05-04 09:04 41.14555 -8.41824 11104 ft 303 kts 201°
2026-05-04 09:05 41.12591 -8.42705 10973 ft 293 kts 201°
2026-05-04 09:05 41.10686 -8.43561 10784 ft 286 kts 201°
2026-05-04 09:05 41.08811 -8.44409 10499 ft 283 kts 201°
2026-05-04 09:05 41.06947 -8.45250 10175 ft 282 kts 201°
2026-05-04 09:06 41.05093 -8.46082 9832 ft 281 kts 201°
2026-05-04 09:07 40.98936 -8.59201 7355 ft 242 kts 285°
2026-05-04 09:08 40.99702 -8.61015 7223 ft 218 kts 319°
2026-05-04 09:08 41.01006 -8.61887 6903 ft 210 kts 346°
2026-05-04 09:08 41.02435 -8.62270 6435 ft 209 kts 347°
2026-05-04 09:08 41.03863 -8.62645 6016 ft 206 kts 347°
2026-05-04 09:09 41.05248 -8.63009 5426 ft 205 kts 347°
2026-05-04 09:09 41.06674 -8.63387 4590 ft 213 kts 348°
2026-05-04 09:09 41.08145 -8.63769 3720 ft 218 kts 348°
2026-05-04 09:09 41.09626 -8.64154 3141 ft 211 kts 348°
2026-05-04 09:10 41.10994 -8.64510 2987 ft 194 kts 348°
2026-05-04 09:10 41.12278 -8.64844 2660 ft 181 kts 348°
2026-05-04 09:10 41.13469 -8.65155 2300 ft 169 kts 348°
2026-05-04 09:10 41.14596 -8.65457 1947 ft 160 kts 348°
2026-05-04 09:11 41.15621 -8.65730 1867 ft 143 kts 348°
2026-05-04 09:11 41.16559 -8.65966 1674 ft 137 kts 348°
2026-05-04 09:11 41.17475 -8.66211 1419 ft 132 kts 348°
2026-05-04 09:11 41.18373 -8.66448 1206 ft 130 kts 349°
2026-05-04 09:12 41.19252 -8.66687 1009 ft 128 kts 348°
2026-05-04 09:12 41.20125 -8.66918 835 ft 127 kts 350°
2026-05-04 09:14 41.24955 -8.68163 192 ft 29 kts 350°
2026-05-04 09:14 41.25140 -8.68162 191 ft 25 kts 12°
2026-05-04 09:14 41.25245 -8.68118 180 ft 6 kts 19°
2026-05-04 09:14 41.25284 -8.68095 179 ft 6 kts 37°
2026-05-04 09:15 41.25292 -8.68056 180 ft 3 kts 97°
2026-05-04 09:15 41.25276 -8.68027 181 ft 7 kts 142°
2026-05-04 09:15 41.25201 -8.67998 187 ft 13 kts 168°
2026-05-04 09:15 41.25131 -8.67980 189 ft 8 kts 169°
2026-05-04 09:17 41.24023 -8.67529 238 ft 18 kts 169°
2026-05-04 09:18 41.23896 -8.67495 238 ft 20 kts 169°
2026-05-04 09:18 41.23770 -8.67457 239 ft 17 kts 153°
2026-05-04 09:18 41.23694 -8.67357 242 ft 14 kts 144°
2026-05-04 09:18 41.23612 -8.67330 242 ft 9 kts 179°
2026-05-04 09:19 41.23592 -8.67283 244 ft 4 kts 88°
2026-05-04 09:19 41.23593 -8.67256 245 ft 3 kts 88°
2026-05-04 09:19 41.23593 -8.67224 245 ft 2 kts 88°
2026-05-04 09:19 41.23593 -8.67221 245 ft 0 kts 88°